Time,TemperatureF,DewpointF,PressureIn,WindDirection,WindDirectionDegrees,WindSpeedMPH,WindSpeedGustMPH,Humidity,HourlyPrecipIn,Conditions,Clouds,dailyrainin,SoftwareType,DateUTC
2013-05-11 00:10:00,44.7,43.0,29.91,West,265,6.0,-999.0,93,-99.99,,,0.00,weatherlink.com 1.10,2013-05-11 04:10:00,
2013-05-11 00:25:00,44.7,43.0,29.91,NE,48,2.0,-999.0,93,-99.99,,,0.00,weatherlink.com 1.10,2013-05-11 04:25:00,
2013-05-11 00:40:00,44.7,43.0,29.91,NE,40,5.0,-999.0,94,-99.99,,,0.00,weatherlink.com 1.10,2013-05-11 04:40:00,
2013-05-11 00:55:00,44.6,43.0,29.92,North,360,4.0,-999.0,94,-99.99,,,0.00,weatherlink.com 1.10,2013-05-11 04:55:00,
2013-05-11 01:10:00,44.7,43.0,29.92,NNW,336,3.0,-999.0,94,-99.99,,,0.00,weatherlink.com 1.10,2013-05-11 05:10:00,
2013-05-11 01:25:00,44.6,43.0,29.93,NNE,17,3.0,-999.0,95,-99.99,,,0.00,weatherlink.com 1.10,2013-05-11 05:25:00,
2013-05-11 01:40:00,44.6,43.0,29.92,NNE,16,0.0,-999.0,95,-99.99,,,0.00,weatherlink.com 1.10,2013-05-11 05:40:00,
2013-05-11 01:55:00,44.5,43.0,29.93,NW,321,2.0,-999.0,95,-99.99,,,0.00,weatherlink.com 1.10,2013-05-11 05:55:00,
2013-05-11 02:10:00,44.3,43.0,29.93,WNW,283,0.0,-999.0,96,-99.99,,,0.00,weatherlink.com 1.10,2013-05-11 06:10:00,
2013-05-11 02:25:00,44.5,44.0,29.92,West,279,1.0,-999.0,96,-99.99,,,0.00,weatherlink.com 1.10,2013-05-11 06:25:00,
2013-05-11 02:40:00,44.3,43.0,29.92,WNW,286,2.0,-999.0,96,-99.99,,,0.00,weatherlink.com 1.10,2013-05-11 06:40:00,
2013-05-11 02:55:00,44.3,43.0,29.93,NW,311,4.0,-999.0,96,-99.99,,,0.00,weatherlink.com 1.10,2013-05-11 06:55:00,
2013-05-11 03:10:00,44.4,43.0,29.93,NNW,344,1.0,-999.0,96,-99.99,,,0.00,weatherlink.com 1.10,2013-05-11 07:10:00,
2013-05-11 03:25:00,44.5,44.0,29.94,WSW,253,3.0,-999.0,96,-99.99,,,0.00,weatherlink.com 1.10,2013-05-11 07:25:00,
2013-05-11 03:40:00,44.7,43.0,29.93,West,277,1.0,-999.0,95,-99.99,,,0.00,weatherlink.com 1.10,2013-05-11 07:40:00,
2013-05-11 03:55:00,44.9,44.0,29.93,West,280,2.0,-999.0,95,-99.99,,,0.00,weatherlink.com 1.10,2013-05-11 07:55:00,
2013-05-11 04:10:00,45.0,44.0,29.93,WNW,302,0.0,-999.0,95,-99.99,,,0.00,weatherlink.com 1.10,2013-05-11 08:10:00,
2013-05-11 04:25:00,45.0,44.0,29.93,West,277,1.0,-999.0,95,-99.99,,,0.00,weatherlink.com 1.10,2013-05-11 08:25:00,
2013-05-11 04:40:00,45.0,44.0,29.93,WNW,294,0.0,-999.0,95,-99.99,,,0.00,weatherlink.com 1.10,2013-05-11 08:40:00,
2013-05-11 04:55:00,45.1,44.0,29.93,WNW,286,3.0,-999.0,95,-99.99,,,0.00,weatherlink.com 1.10,2013-05-11 08:55:00,
2013-05-11 05:10:00,45.1,44.0,29.93,West,263,0.0,-999.0,95,-99.99,,,0.00,weatherlink.com 1.10,2013-05-11 09:10:00,
2013-05-11 05:25:00,45.2,44.0,29.92,NW,307,3.0,-999.0,95,-99.99,,,0.00,weatherlink.com 1.10,2013-05-11 09:25:00,
2013-05-11 05:40:00,45.3,44.0,29.92,NNW,341,3.0,-999.0,95,-99.99,,,0.00,weatherlink.com 1.10,2013-05-11 09:40:00,
2013-05-11 05:55:00,45.4,44.0,29.92,WSW,250,1.0,-999.0,95,-99.99,,,0.00,weatherlink.com 1.10,2013-05-11 09:55:00,
2013-05-11 06:10:00,45.3,44.0,29.92,West,281,1.0,-999.0,94,-99.99,,,0.00,weatherlink.com 1.10,2013-05-11 10:10:00,
2013-05-11 06:25:00,45.4,44.0,29.91,WNW,294,4.0,-999.0,94,-99.99,,,0.00,weatherlink.com 1.10,2013-05-11 10:25:00,
2013-05-11 06:40:00,45.3,44.0,29.91,West,281,3.0,-999.0,94,-99.99,,,0.00,weatherlink.com 1.10,2013-05-11 10:40:00,
2013-05-11 06:55:00,45.3,44.0,29.91,WNW,294,0.0,-999.0,94,-99.99,,,0.00,weatherlink.com 1.10,2013-05-11 10:55:00,
2013-05-11 07:10:00,45.4,44.0,29.91,North,5,4.0,-999.0,93,-99.99,,,0.00,weatherlink.com 1.10,2013-05-11 11:10:00,
2013-05-11 07:25:00,45.5,44.0,29.91,NW,319,2.0,-999.0,93,-99.99,,,0.00,weatherlink.com 1.10,2013-05-11 11:25:00,
2013-05-11 07:40:00,45.6,44.0,29.91,NNE,16,0.0,-999.0,93,-99.99,,,0.00,weatherlink.com 1.10,2013-05-11 11:40:00,
2013-05-11 07:55:00,45.8,44.0,29.91,NNW,348,1.0,-999.0,93,-99.99,,,0.00,weatherlink.com 1.10,2013-05-11 11:55:00,
2013-05-11 08:10:00,45.8,44.0,29.91,West,266,3.0,-999.0,93,-99.99,,,0.00,weatherlink.com 1.10,2013-05-11 12:10:00,
2013-05-11 08:25:00,46.1,44.0,29.92,North,355,2.0,-999.0,93,-99.99,,,0.00,weatherlink.com 1.10,2013-05-11 12:25:00,
2013-05-11 08:40:00,46.2,44.0,29.92,WNW,301,5.0,-999.0,93,-99.99,,,0.00,weatherlink.com 1.10,2013-05-11 12:40:00,
2013-05-11 08:55:00,46.4,45.0,29.92,WSW,248,0.0,-999.0,93,-99.99,,,0.00,weatherlink.com 1.10,2013-05-11 12:55:00,
2013-05-11 09:10:00,46.7,45.0,29.92,NW,306,2.0,-999.0,93,-99.99,,,0.00,weatherlink.com 1.10,2013-05-11 13:10:00,
2013-05-11 09:25:00,47.1,45.0,29.93,West,271,3.0,-999.0,93,-99.99,,,0.00,weatherlink.com 1.10,2013-05-11 13:25:00,
2013-05-11 09:41:00,47.4,46.0,29.93,West,267,4.0,-999.0,93,-99.99,,,0.00,weatherlink.com 1.10,2013-05-11 13:41:00,
2013-05-11 09:56:00,47.6,45.0,29.93,West,269,3.0,-999.0,92,-99.99,,,0.00,weatherlink.com 1.10,2013-05-11 13:56:00,
2013-05-11 10:11:00,48.1,46.0,29.93,SW,225,6.0,-999.0,93,-99.99,,,0.00,weatherlink.com 1.10,2013-05-11 14:11:00,
2013-05-11 10:26:00,48.2,46.0,29.93,WSW,237,3.0,-999.0,93,-99.99,,,0.00,weatherlink.com 1.10,2013-05-11 14:26:00,
2013-05-11 10:41:00,48.7,47.0,29.93,WSW,240,6.0,-999.0,92,-99.99,,,0.00,weatherlink.com 1.10,2013-05-11 14:41:00,
2013-05-11 10:56:00,49.4,47.0,29.93,WSW,250,7.0,-999.0,91,-99.99,,,0.00,weatherlink.com 1.10,2013-05-11 14:56:00,
2013-05-11 11:11:00,49.7,47.0,29.93,WSW,254,4.0,-999.0,90,-99.99,,,0.00,weatherlink.com 1.10,2013-05-11 15:11:00,
2013-05-11 11:26:00,50.3,48.0,29.91,SW,223,6.0,-999.0,91,-99.99,,,0.00,weatherlink.com 1.10,2013-05-11 15:26:00,
2013-05-11 11:41:00,50.7,48.0,29.92,WSW,237,5.0,-999.0,90,-99.99,,,0.00,weatherlink.com 1.10,2013-05-11 15:41:00,
2013-05-11 11:56:00,51.1,48.0,29.91,West,273,9.0,-999.0,90,-99.99,,,0.00,weatherlink.com 1.10,2013-05-11 15:56:00,
2013-05-11 12:11:00,52.2,49.0,29.91,SW,229,8.0,-999.0,89,-99.99,,,0.00,weatherlink.com 1.10,2013-05-11 16:11:00,
2013-05-11 12:26:00,52.8,49.0,29.90,WSW,244,6.0,-999.0,88,-99.99,,,0.00,weatherlink.com 1.10,2013-05-11 16:26:00,
2013-05-11 12:41:00,53.4,50.0,29.90,SW,227,5.0,-999.0,87,-99.99,,,0.00,weatherlink.com 1.10,2013-05-11 16:41:00,
2013-05-11 12:56:00,54.7,51.0,29.90,WSW,240,9.0,-999.0,86,-99.99,,,0.00,weatherlink.com 1.10,2013-05-11 16:56:00,
2013-05-11 13:11:00,55.4,52.0,29.89,WSW,244,5.0,-999.0,87,-99.99,,,0.00,weatherlink.com 1.10,2013-05-11 17:11:00,
2013-05-11 13:26:00,56.4,52.0,29.87,SW,218,7.0,-999.0,86,-99.99,,,0.00,weatherlink.com 1.10,2013-05-11 17:26:00,
2013-05-11 13:41:00,57.1,52.0,29.87,SW,229,7.0,-999.0,83,-99.99,,,0.00,weatherlink.com 1.10,2013-05-11 17:41:00,
2013-05-11 13:56:00,58.1,52.0,29.87,SW,232,10.0,-999.0,80,-99.99,,,0.00,weatherlink.com 1.10,2013-05-11 17:56:00,
2013-05-11 14:11:00,58.4,53.0,29.88,SW,221,8.0,-999.0,83,-99.99,,,0.00,weatherlink.com 1.10,2013-05-11 18:11:00,
2013-05-11 14:26:00,58.1,53.0,29.87,SW,218,8.0,-999.0,82,-99.99,,,0.00,weatherlink.com 1.10,2013-05-11 18:26:00,
2013-05-11 14:41:00,57.5,53.0,29.88,WSW,240,9.0,-999.0,84,-99.99,,,0.00,weatherlink.com 1.10,2013-05-11 18:41:00,
2013-05-11 14:56:00,57.6,53.0,29.87,SW,229,8.0,-999.0,83,-99.99,,,0.00,weatherlink.com 1.10,2013-05-11 18:56:00,
2013-05-11 15:11:00,59.7,55.0,29.87,WSW,244,10.0,-999.0,84,-99.99,,,0.00,weatherlink.com 1.10,2013-05-11 19:11:00,
2013-05-11 15:26:00,60.0,55.0,29.87,SW,220,13.0,-999.0,82,-99.99,,,0.00,weatherlink.com 1.10,2013-05-11 19:26:00,
2013-05-11 15:41:00,61.0,56.0,29.86,SW,222,9.0,-999.0,82,-99.99,,,0.00,weatherlink.com 1.10,2013-05-11 19:41:00,
2013-05-11 15:56:00,62.1,56.0,29.85,WSW,241,11.0,-999.0,81,-99.99,,,0.00,weatherlink.com 1.10,2013-05-11 19:56:00,
2013-05-11 16:11:00,63.6,56.0,29.85,WSW,247,11.0,-999.0,77,-99.99,,,0.00,weatherlink.com 1.10,2013-05-11 20:11:00,
2013-05-11 16:26:00,64.1,44.0,29.85,West,259,13.0,-999.0,49,-99.99,,,0.00,weatherlink.com 1.10,2013-05-11 20:26:00,
2013-05-11 16:41:00,64.5,45.0,29.85,West,270,12.0,-999.0,49,-99.99,,,0.00,weatherlink.com 1.10,2013-05-11 20:41:00,
2013-05-11 16:56:00,63.4,44.0,29.85,WNW,288,8.0,-999.0,49,-99.99,,,0.00,weatherlink.com 1.10,2013-05-11 20:56:00,
2013-05-11 17:11:00,63.4,47.0,29.86,West,277,17.0,-999.0,56,-99.99,,,0.00,weatherlink.com 1.10,2013-05-11 21:11:00,
2013-05-11 17:26:00,63.3,44.0,29.86,WNW,292,12.0,-999.0,50,-99.99,,,0.00,weatherlink.com 1.10,2013-05-11 21:26:00,
2013-05-11 17:42:00,63.3,43.0,29.87,West,265,14.0,-999.0,48,-99.99,,,0.00,weatherlink.com 1.10,2013-05-11 21:42:00,
2013-05-11 17:57:00,62.2,42.0,29.87,WNW,301,10.0,-999.0,47,-99.99,,,0.00,weatherlink.com 1.10,2013-05-11 21:57:00,
2013-05-11 18:12:00,61.9,41.0,29.88,West,264,8.0,-999.0,46,-99.99,,,0.00,weatherlink.com 1.10,2013-05-11 22:12:00,
2013-05-11 18:27:00,62.0,43.0,29.89,WNW,291,5.0,-999.0,50,-99.99,,,0.00,weatherlink.com 1.10,2013-05-11 22:27:00,
2013-05-11 18:42:00,60.9,36.0,29.90,NW,310,7.0,-999.0,40,-99.99,,,0.00,weatherlink.com 1.10,2013-05-11 22:42:00,
2013-05-11 18:57:00,60.4,35.0,29.90,West,273,6.0,-999.0,39,-99.99,,,0.00,weatherlink.com 1.10,2013-05-11 22:57:00,
2013-05-11 19:12:00,59.4,35.0,29.91,West,270,3.0,-999.0,40,-99.99,,,0.00,weatherlink.com 1.10,2013-05-11 23:12:00,
2013-05-11 19:27:00,57.9,36.0,29.92,NW,304,6.0,-999.0,44,-99.99,,,0.00,weatherlink.com 1.10,2013-05-11 23:27:00,
2013-05-11 19:42:00,57.9,35.0,29.93,WSW,248,4.0,-999.0,42,-99.99,,,0.00,weatherlink.com 1.10,2013-05-11 23:42:00,
2013-05-11 19:57:00,57.4,35.0,29.93,NNW,331,7.0,-999.0,43,-99.99,,,0.00,weatherlink.com 1.10,2013-05-11 23:57:00,
2013-05-11 20:12:00,56.3,34.0,29.94,West,261,2.0,-999.0,43,-99.99,,,0.00,weatherlink.com 1.10,2013-05-12 00:12:00,
2013-05-11 20:27:00,55.2,35.0,29.95,WNW,296,4.0,-999.0,46,-99.99,,,0.00,weatherlink.com 1.10,2013-05-12 00:27:00,
2013-05-11 20:42:00,54.3,34.0,29.95,NW,304,2.0,-999.0,46,-99.99,,,0.00,weatherlink.com 1.10,2013-05-12 00:42:00,
2013-05-11 20:57:00,53.6,35.0,29.96,WNW,298,2.0,-999.0,49,-99.99,,,0.00,weatherlink.com 1.10,2013-05-12 00:57:00,
2013-05-11 21:12:00,53.1,34.0,29.96,West,259,8.0,-999.0,49,-99.99,,,0.00,weatherlink.com 1.10,2013-05-12 01:12:00,
2013-05-11 21:27:00,52.3,34.0,29.97,NW,310,4.0,-999.0,51,-99.99,,,0.00,weatherlink.com 1.10,2013-05-12 01:27:00,
2013-05-11 21:42:00,51.6,33.0,29.97,NNE,16,4.0,-999.0,50,-99.99,,,0.00,weatherlink.com 1.10,2013-05-12 01:42:00,
2013-05-11 21:57:00,50.7,34.0,29.98,NW,317,1.0,-999.0,53,-99.99,,,0.00,weatherlink.com 1.10,2013-05-12 01:57:00,
2013-05-11 22:12:00,50.3,34.0,29.99,NW,322,2.0,-999.0,53,-99.99,,,0.00,weatherlink.com 1.10,2013-05-12 02:12:00,
2013-05-11 22:27:00,50.2,33.0,30.00,North,355,3.0,-999.0,53,-99.99,,,0.00,weatherlink.com 1.10,2013-05-12 02:27:00,
2013-05-11 22:42:00,49.3,34.0,30.01,NNW,341,3.0,-999.0,57,-99.99,,,0.00,weatherlink.com 1.10,2013-05-12 02:42:00,
2013-05-11 22:57:00,48.4,35.0,30.01,NNW,332,3.0,-999.0,61,-99.99,,,0.00,weatherlink.com 1.10,2013-05-12 02:57:00,
2013-05-11 23:12:00,47.6,36.0,30.01,NW,320,0.0,-999.0,64,-99.99,,,0.00,weatherlink.com 1.10,2013-05-12 03:12:00,
2013-05-11 23:27:00,46.8,35.0,30.01,NNW,344,0.0,-999.0,65,-99.99,,,0.00,weatherlink.com 1.10,2013-05-12 03:27:00,
2013-05-11 23:42:00,46.2,35.0,30.02,West,281,2.0,-999.0,66,-99.99,,,0.00,weatherlink.com 1.10,2013-05-12 03:42:00,
2013-05-11 23:57:00,45.8,35.0,30.02,WNW,298,0.0,-999.0,67,-99.99,,,0.00,weatherlink.com 1.10,2013-05-12 03:57:00,